User: anonymous   Login
Location: Unspecified
(0.0000°N, 0.0000°E)
Time: 14:50:29
(UTC+00:00)
Language:

CHUBUSAT 2 - Orbit

View from above orbital plane
View from above orbital plane
View from above satellite
View from above satellite

Ground track
Ground track

The orbit data is extracted from the following two-line orbital elements,

1 41338U 16012B   17206.22243597 +.00000277 +00000-0 +15052-4 0  9992
2 41338 031.0023 230.6942 0013912 075.9177 284.3004 14.99762146078700
Epoch (UTC): 25 July 2017 05:20:18
Eccentricity: 0.0013912
inclination: 31.0023°
perigee height: 558 km
apogee height: 577 km
right ascension of ascending node: 230.6942°
argument of perigee: 75.9177°
revolutions per day: 14.99762146
mean anomaly at epoch: 284.3004°
orbit number at epoch: 7870

The dashed part of the orbit path shows where the satellite is in the earth's shadow,  

DLR